Location: Beadle
(51.4667°N, 109.0000°W)
Time: 09:46:29
(UTC+00:00)

DIWATA 2B (PO-101) - Pass Details

Date: 04 July 2022
Orbit: 583 x 599 km, 98.0° (Epoch: 14 August)

Event Time Altitude Azimuth Distance (km) Brightness Sun altitude
Exits shadow 08:31:11 10° 145° (SE) 1,976 ? -14.1°
Reaches altitude 10° 08:31:17 10° 145° (SE) 1,938 ? -14.1°
Maximum altitude 08:35:22 51° 70° (ENE) 762 ? -13.9°
Drops below altitude 10° 08:39:28 10° 355° (N) 1,952 ? -13.7°
Sets 08:41:41 0° 350° (N) 2,859 ? -13.6°
